Weather observations for the past three days for
Boulder Municipal Airport
Imperial (Metric)
Date Time (mdt) Wind (mph) Vis. (mi.) Weather Sky Cond. Temperature (ºF) Relative Humidity Wind Chill (°F) Heat Index (°F) Pressure Precipitation (in)
Air Dwpt 6 hour altimeter (in) sea level (mb) 1 hr 3 hr 6 hr
Max. Min.
23 17:55 N 9 10.00 Partly Cloudy SCT120 87.8 41 19% 84 30.03 0.0
23 17:35 N 8 10.00 Fair CLR 89.6 41 18% 86 30.03 0.0
23 17:15 N 8 10.00 Fair CLR 95 37.4 13% 90 30.03 0.0
23 16:55 E 6 10.00 Fair CLR 96.8 39.2 13% 92 30.03 0.0
23 16:35 E 5 10.00 Fair CLR 96.8 37.4 13% 92 30.03 0.0
23 16:15 N 3 10.00 Fair CLR 93.2 35.6 13% 89 30.04 0.0
23 15:55 E 3 10.00 Fair CLR 95 37.4 13% 90 30.04 0.0
23 15:35 E 7 10.00 Fair CLR 95 37.4 13% 90 30.05 0.0
23 15:15 NE 7 10.00 Fair CLR 95 37.4 13% 90 30.06 0.0
23 14:55 SE 6 10.00 Fair CLR 96.8 37.4 13% 92 30.06 0.0
23 14:35 Calm 10.00 Fair CLR 96.8 37.4 13% 92 30.07 0.0
23 14:15 NE 14 10.00 Fair CLR 95 37.4 13% 90 30.07 0.0
23 13:55 SE 3 10.00 Fair CLR 95 37.4 13% 90 30.07 0.0
23 13:35 SE 6 10.00 Fair CLR 93.2 37.4 14% 89 30.08 0.0
23 13:15 SE 6 10.00 Fair CLR 95 37.4 13% 90 30.09 0.0
23 12:55 SE 5 10.00 Fair CLR 91.4 37.4 15% 87 30.1 0.0
23 12:35 E 3 10.00 Partly Cloudy SCT120 91.4 35.6 14% 87 30.11 0.0
23 12:15 NE 7 10.00 Partly Cloudy SCT120 93.2 35.6 13% 89 30.11 0.0
23 11:55 N 6 10.00 Partly Cloudy SCT120 91.4 35.6 14% 87 30.12 0.0
23 11:35 E 5 10.00 Partly Cloudy SCT120 95 35.6 12% 90 30.12 0.0
23 11:15 SE 7 10.00 Fair CLR 91.4 37.4 15% 87 30.12 0.0
23 10:55 E 5 10.00 Fair CLR 91.4 39.2 16% 87 30.12 0.0
23 10:35 SE 6 10.00 Partly Cloudy SCT120 89.6 41 18% 86 30.13 0.0
23 10:15 E 5 10.00 Fair CLR 89.6 42.8 20% 86 30.13 0.0
23 09:55 E 3 10.00 Fair CLR 87.8 44.6 22% 85 30.14 0.0
23 09:35 NE 5 10.00 Fair CLR 86 46.4 25% 83 30.14 0.0
23 09:15 E 5 10.00 Fair CLR 86 46.4 25% 83 30.14 0.0
23 08:55 E 3 10.00 Fair CLR 82.4 44.6 26% 81 30.14 0.0
23 08:35 Calm 10.00 Fair CLR 80.6 46.4 30% 80 30.14 0.0
23 08:15 Calm 10.00 Fair CLR 78.8 48.2 34% 79 30.15 0.0
23 07:55 Calm 10.00 Fair CLR 78.8 46.4 32% 79 30.15 0.0
23 07:35 Calm 10.00 Fair CLR 77 42.8 30% 78 30.14 0.0
23 07:15 N 3 10.00 Fair CLR 73.4 44.6 36% 30.14 0.0
23 06:55 Calm 10.00 Fair CLR 69.8 42.8 38% 30.14 0.0
23 06:35 NW 5 10.00 Fair CLR 71.6 41 33% 30.14 0.0
23 06:15 Calm 10.00 Fair CLR 71.6 37.4 29% 30.14 0.0
23 05:55 Calm 10.00 Fair CLR 69.8 37.4 31% 30.14 0.0
23 05:35 Calm 10.00 Fair CLR 64.4 37.4 37% 30.14 0.0
23 05:15 Calm 10.00 Fair CLR 68 37.4 33% 30.13 0.0
23 04:55 Calm 10.00 Fair CLR 69.8 37.4 31% 30.13 0.0
23 04:35 SW 3 10.00 Fair CLR 71.6 35.6 27% 30.13 0.0
23 04:15 Calm 10.00 Fair CLR 71.6 35.6 27% 30.13 0.0
23 03:55 Calm 10.00 Fair CLR 69.8 35.6 29% 30.13 0.0
23 03:35 NE 3 10.00 Fair CLR 69.8 37.4 31% 30.13 0.0
23 03:15 SW 14 10.00 Fair CLR 73.4 33.8 23% 30.13 0.0
23 02:55 SW 8 10.00 Fair CLR 71.6 33.8 25% 30.14 0.0
23 02:35 SW 8 10.00 Fair CLR 71.6 33.8 25% 30.13 0.0
23 02:15 SW 7 10.00 Fair CLR 69.8 33.8 27% 30.13 0.0
23 01:55 Calm 10.00 Fair CLR 69.8 35.6 29% 30.14 0.0
23 01:35 W 7 10.00 Fair CLR 69.8 35.6 29% 30.14 0.0
23 01:15 SW 8 10.00 Fair CLR 71.6 35.6 27% 30.14 0.0
23 00:55 SW 5 10.00 Fair CLR 69.8 37.4 31% 30.14 0.0
23 00:35 W 6 10.00 Fair CLR 68 37.4 33% 30.15 0.0
23 00:15 SW 6 10.00 Fair CLR 69.8 37.4 31% 30.16 0.0
22 23:55 S 3 10.00 Fair CLR 69.8 37.4 31% 30.17 0.0
22 23:35 SW 3 10.00 Fair CLR 71.6 37.4 29% 30.17 0.0
22 23:15 SW 5 10.00 Fair CLR 71.6 37.4 29% 30.17 0.0
22 22:55 S 6 10.00 Fair CLR 71.6 39.2 31% 30.18 0.0
22 22:35 SW 3 10.00 Fair CLR 73.4 35.6 25% 30.18 0.0
22 22:15 SW 9 10.00 Fair CLR 75.2 35.6 24% 76 30.18 0.0
22 21:55 SW 6 10.00 Fair CLR 75.2 35.6 24% 76 30.18 0.0
22 21:35 SW 5 10.00 Fair CLR 75.2 35.6 24% 76 30.17 0.0
22 21:15 W 3 10.00 Fair CLR 77 37.4 24% 77 30.16 0.0
22 20:55 Calm 10.00 Fair CLR 75.2 39.2 27% 77 30.16 0.0
22 20:35 Calm 10.00 Fair CLR 77 37.4 24% 77 30.16 0.0
22 20:15 Calm 10.00 Partly Cloudy SCT110 78.8 37.4 23% 78 30.15 0.0
22 19:55 Calm 10.00 Mostly Cloudy BKN110 78.8 37.4 23% 78 30.16 0.0
22 19:35 Calm 10.00 Mostly Cloudy BKN110 78.8 37.4 23% 78 30.17 0.0
22 19:15 E 5 10.00 Overcast SCT090 OVC110 77 37.4 24% 77 30.17 0.0
22 18:55 SW 12 G 16 10.00 Mostly Cloudy BKN110 78.8 37.4 23% 78 30.18 0.0
22 18:35 W 5 10.00 Fair CLR 80.6 37.4 21% 79 30.17 0.0
22 18:15 SW 9 10.00 Fair CLR 80.6 35.6 20% 79 30.16 0.0
22 17:55 W 10 10.00 Fair CLR 80.6 35.6 20% 79 30.15 0.0
22 17:35 SW 6 10.00 Fair CLR 80.6 37.4 21% 79 30.15 0.0
22 17:15 W 16 G 26 10.00 Fair CLR 80.6 37.4 21% 79 30.14 0.0
22 16:55 NW 16 G 24 10.00 Partly Cloudy SCT120 80.6 41 24% 79 30.14 0.0
22 16:35 N 12 G 16 10.00 Fair CLR 84.2 35.6 18% 81 30.14 0.0
22 16:15 W 14 G 23 10.00 Fair CLR 84.2 35.6 18% 81 30.13 0.0
22 15:55 SW 13 G 28 10.00 Partly Cloudy SCT110 84.2 33.8 16% 81 30.12 0.0
22 15:35 W 15 G 23 10.00 Partly Cloudy SCT120 86 35.6 17% 83 30.12 0.0
22 15:15 N 6 10.00 Fair CLR 87.8 35.6 16% 84 30.09 0.0
22 14:55 NE 9 10.00 Fair CLR 87.8 35.6 16% 84 30.09 0.0
22 14:35 N 7 10.00 Fair CLR 87.8 35.6 16% 84 30.1 0.0
22 14:15 N 9 10.00 Partly Cloudy SCT120 89.6 37.4 16% 86 30.1 0.0
22 13:55 N 6 10.00 Partly Cloudy SCT120 89.6 37.4 16% 86 30.11 0.0
22 13:35 N 8 10.00 Partly Cloudy SCT120 89.6 35.6 15% 86 30.12 0.0
22 13:15 N 13 G 17 10.00 Partly Cloudy SCT120 89.6 37.4 16% 86 30.13 0.0
22 12:55 E 6 10.00 Fair CLR 89.6 37.4 16% 86 30.13 0.0
22 12:35 NE 7 10.00 Fair CLR 87.8 37.4 17% 84 30.14 0.0
22 12:15 E 8 10.00 Fair CLR 87.8 37.4 17% 84 30.14 0.0
22 11:55 E 6 10.00 Fair CLR 87.8 41 19% 84 30.15 0.0
22 11:35 N 6 10.00 Fair CLR 84.2 39.2 20% 81 30.15 0.0
22 11:15 E 9 10.00 Fair CLR 84.2 42.8 23% 82 30.15 0.0
22 10:55 E 7 10.00 Fair CLR 82.4 44.6 26% 81 30.15 0.0
22 10:35 E 5 10.00 Fair CLR 80.6 46.4 30% 80 30.15 0.0
22 10:15 Calm 10.00 Fair CLR 78.8 42.8 28% 78 30.16 0.0
22 09:55 SE 3 10.00 Fair CLR 77 44.6 32% 78 30.16 0.0
22 09:35 E 5 10.00 Fair CLR 73.4 44.6 36% 30.17 0.0
22 09:15 NW 5 10.00 Fair CLR 71.6 44.6 38% 30.17 0.0
22 08:55 Calm 10.00 Fair CLR 69.8 46.4 43% 30.18 0.0
22 08:35 N 3 10.00 Fair CLR 69.8 50 50% 30.16 0.0
22 08:15 Calm 10.00 Fair CLR 68 50 53% 30.15 0.0
22 07:55 Calm 10.00 Fair CLR 66.2 50 56% 30.15 0.0
22 07:35 NE 3 10.00 Fair CLR 64.4 50 60% 30.14 0.0
22 07:15 SW 5 10.00 Fair CLR 64.4 46.4 52% 30.13 0.0
22 06:55 SW 3 10.00 Fair CLR 62.6 46.4 56% 30.13 0.0
22 06:35 Calm 10.00 Fair CLR 59 50 72% 30.13 0.0
22 06:15 N 3 10.00 Fair CLR 55.4 50 82% 30.13 0.0
22 05:55 N 3 10.00 Fair CLR 59 50 72% 30.13 0.0
22 05:35 E 3 10.00 Fair CLR 55.4 50 82% 30.12 0.0
22 05:15 SE 5 10.00 Fair CLR 57.2 48.2 72% 30.12 0.0
22 04:55 W 5 10.00 Fair CLR 55.4 48.2 77% 30.12 0.0
22 04:35 Calm 10.00 Fair CLR 57.2 50 77% 30.12 0.0
22 04:15 SW 5 10.00 Fair CLR 60.8 46.4 59% 30.11 0.0
22 03:55 S 5 10.00 Fair CLR 60.8 48.2 63% 30.11 0.0
22 03:35 E 6 10.00 Fair CLR 59 48.2 68% 30.11 0.0
22 03:15 Calm 10.00 Fair CLR 60.8 48.2 63% 30.12 0.0
22 02:55 Calm 10.00 Fair CLR 60.8 48.2 63% 30.12 0.0
22 02:35 S 3 10.00 Fair CLR 60.8 48.2 63% 30.11 0.0
22 02:15 SE 3 10.00 Fair CLR 60.8 48.2 63% 30.11 0.0
22 01:55 Calm 10.00 Fair CLR 60.8 46.4 59% 30.12 0.0
22 01:35 Calm 10.00 Fair CLR 62.6 46.4 56% 30.13 0.0
22 01:15 Calm 10.00 Fair CLR 62.6 46.4 56% 30.13 0.0
22 00:55 Calm 10.00 Fair CLR 62.6 46.4 56% 30.13 0.0
22 00:35 N 3 10.00 Partly Cloudy SCT100 SCT120 64.4 46.4 52% 30.13 0.0
22 00:15 N 9 10.00 Mostly Cloudy BKN110 68 44.6 43% 30.13 0.0
21 23:55 E 5 10.00 Partly Cloudy SCT110 69.8 42.8 38% 30.1 0.0
21 23:35 NW 13 G 18 10.00 Partly Cloudy SCT120 73.4 39.2 29% 30.12 0.0
21 23:15 SW 8 10.00 Mostly Cloudy BKN100 BKN120 71.6 41 33% 30.11 0.0
21 22:55 Calm 10.00 Mostly Cloudy BKN100 71.6 53.6 53% 30.13 0.0
21 22:35 Calm 10.00 Fair CLR 71.6 53.6 53% 30.14 0.0
21 22:15 NW 3 10.00 Fair CLR 71.6 53.6 53% 30.13 0.0
21 21:55 N 10 10.00 Fair CLR 71.6 53.6 53% 30.11 0.0
21 21:35 NW 6 10.00 Fair CLR 71.6 55.4 57% 30.08 0.0
21 21:15 N 7 10.00 Fair CLR 71.6 55.4 57% 30.07 0.0
21 20:55 N 9 10.00 Fair CLR 71.6 55.4 57% 30.06 0.0
21 20:35 NW 13 G 20 10.00 Fair CLR 73.4 55.4 53% 30.04 0.0
21 20:15 SE 3 10.00 Fair CLR 77 50 39% 78 30.01 0.0
21 19:55 SE 7 10.00 Fair CLR 78.8 50 37% 79 30.01 0.0
21 19:35 Calm 10.00 Fair CLR 78.8 50 37% 79 30 0.0
21 19:15 E 7 10.00 Fair CLR 78.8 50 37% 79 29.99 0.0
21 18:35 SE 7 10.00 Fair CLR 80.6 48.2 32% 80 29.99 0.0
21 18:15 S 9 10.00 Fair CLR 80.6 46.4 30% 80 29.99 0.0
21 17:55 SE 8 G 18 10.00 Fair CLR 82.4 44.6 26% 81 29.98 0.0
21 17:35 SE 12 G 18 10.00 Fair CLR 82.4 46.4 28% 81 29.98 0.0
21 17:15 S 12 G 21 10.00 Fair CLR 82.4 44.6 26% 81 29.99 0.0
21 16:55 SE 12 10.00 Fair CLR 84.2 48.2 29% 82 30 0.0
21 16:35 S 9 10.00 Fair CLR 82.4 48.2 30% 81 30.03 0.0
21 16:15 S 12 G 20 10.00 Fair CLR 80.6 50 34% 80 30.04 0.0
21 15:55 SE 10 G 16 10.00 Partly Cloudy SCT110 80.6 51.8 37% 80 30.06 0.0
21 15:35 E 7 10.00 Mostly Cloudy BKN110 78.8 50 37% 79 30.07 0.0
21 15:15 S 10 10.00 Thunderstorm in Vicinity BKN110 77 48.2 36% 78 30.08 0.0
21 14:55 S 10 G 22 10.00 Mostly Cloudy BKN120 77 50 39% 78 30.09 0.0
21 14:35 S 10 G 21 10.00 Partly Cloudy SCT110 78.8 51.8 39% 79 30.09 0.0
21 14:15 SE 5 10.00 Mostly Cloudy BKN110 82.4 53.6 37% 81 30.08 0.0
21 13:55 Calm 10.00 Partly Cloudy SCT110 78.8 53.6 42% 79 30.08 0.0
21 13:35 E 6 10.00 Partly Cloudy SCT120 80.6 53.6 39% 80 30.07 0.0
21 13:15 E 6 10.00 Fair CLR 80.6 53.6 39% 80 30.08 0.0
21 12:55 S 6 10.00 Fair CLR 78.8 53.6 42% 79 30.09 0.0
21 12:35 Calm 10.00 Fair CLR 78.8 53.6 42% 79 30.1 0.0
21 12:15 Calm 10.00 Fair CLR 77 53.6 44% 78 30.1 0.0
21 11:55 Calm 10.00 Fair CLR 77 55.4 47% 79 30.12 0.0
21 11:35 Calm 10.00 Fair CLR 73.4 57.2 57% 30.12 0.0
21 11:15 SE 3 10.00 Fair CLR 73.4 55.4 53% 30.13 0.0
21 10:55 SE 5 10.00 Fair CLR 71.6 57.2 61% 30.12 0.0
21 10:35 E 3 10.00 Fair CLR 71.6 59 65% 30.13 0.0
21 10:15 N 3 10.00 Fair CLR 69.8 59 69% 30.13 0.0
21 09:55 N 5 10.00 Fair CLR 68 57.2 69% 30.13 0.0
21 09:35 Calm 10.00 Partly Cloudy SCT014 68 59 73% 30.13 0.0
21 09:15 Calm 10.00 Mostly Cloudy BKN014 64.4 59 83% 30.13 0.0
21 08:55 N 3 10.00 Mostly Cloudy BKN012 62.6 59 88% 30.14 0.0
21 08:35 Calm 10.00 Mostly Cloudy BKN010 62.6 59 88% 30.14 0.0
21 08:15 Calm 10.00 Partly Cloudy SCT010 62.6 59 88% 30.14 0.0
21 07:55 SE 3 10.00 Partly Cloudy SCT010 62.6 59 88% 30.14 0.0
21 07:35 Calm 10.00 Partly Cloudy SCT010 62.6 59 88% 30.14 0.0
21 07:15 Calm 10.00 Mostly Cloudy BKN008 60.8 59 94% 30.14 0.0
21 06:55 Calm 10.00 Mostly Cloudy BKN008 60.8 59 94% 30.13 0.0
21 06:35 W 5 10.00 Mostly Cloudy BKN008 60.8 59 94% 30.13 0.0
21 06:15 Calm 10.00 Partly Cloudy SCT008 60.8 59 94% 30.13 0.0
21 05:55 Calm 10.00 Fair CLR 60.8 55.4 83% 30.13 0.0
21 05:35 NE 3 10.00 Fair CLR 60.8 53.6 77% 30.12 0.0
21 05:15 NW 5 10.00 Fair CLR 60.8 53.6 77% 30.11 0.0
21 04:55 NW 6 10.00 Fair CLR 60.8 53.6 77% 30.11 0.0
21 04:35 NW 5 10.00 Fair CLR 60.8 55.4 83% 30.12 0.0
21 04:15 Calm 10.00 Fair CLR 60.8 55.4 83% 30.11 0.0
21 03:55 Calm 10.00 Fair CLR 60.8 55.4 83% 30.11 0.0
21 03:35 N 3 10.00 Fair CLR 60.8 53.6 77% 30.11 0.0
21 03:15 NW 6 10.00 Fair CLR 60.8 57.2 88% 30.11 0.0
21 02:55 Calm 10.00 Fair CLR 62.6 59 88% 30.1 0.0
21 02:35 SE 3 10.00 Fair CLR 62.6 57.2 83% 30.1 0.0
21 02:15 Calm 10.00 Fair CLR 62.6 59 88% 30.11 0.0
21 01:55 W 3 10.00 Partly Cloudy SCT110 62.6 55.4 77% 30.13 0.0
21 01:35 SW 6 10.00 Mostly Cloudy BKN110 64.4 53.6 68% 30.14 0.0
21 01:15 S 3 10.00 Mostly Cloudy SCT060 SCT090 BKN110 64.4 50 60% 30.14 0.0
21 00:55 SE 3 10.00 Light Rain SCT042 SCT050 OVC090 66.2 50 56% 30.16 0.0 0.01
21 00:35 S 5 10.00 Rain SCT055 SCT065 OVC090 69.8 46.4 43% 30.18 0.0
21 00:15 SE 5 10.00 Light Rain SCT080 OVC100 69.8 44.6 40% 30.18 0.0
20 23:55 SW 3 10.00 Mostly Cloudy SCT090 BKN100 71.6 42.8 36% 30.17 0.0
20 23:35 SW 5 10.00 Overcast OVC100 71.6 42.8 36% 30.16 0.0
20 23:15 W 8 10.00 Overcast OVC100 71.6 42.8 36% 30.16 0.0
20 22:55 W 9 10.00 Light Rain BKN100 71.6 42.8 36% 30.17 0.0
20 22:35 S 3 10.00 Mostly Cloudy BKN110 71.6 44.6 38% 30.15 0.0
20 22:15 SW 5 10.00 Partly Cloudy SCT110 71.6 42.8 36% 30.16 0.0
20 21:55 NW 3 10.00 Partly Cloudy SCT110 71.6 42.8 36% 30.15 0.0
20 21:35 SW 8 10.00 Partly Cloudy SCT120 73.4 46.4 38% 30.15 0.0
20 21:15 SW 5 10.00 Partly Cloudy SCT120 71.6 50 47% 30.14 0.0
20 20:55 W 7 10.00 Partly Cloudy SCT120 71.6 51.8 50% 30.12 0.0
20 20:35 W 3 10.00 Fair CLR 69.8 51.8 53% 30.11 0.0
20 20:15 NW 5 10.00 Fair CLR 71.6 53.6 53% 30.1 0.0
20 19:55 NW 6 10.00 Fair CLR 71.6 53.6 53% 30.11 0.0
20 19:35 N 6 10.00 Partly Cloudy SCT110 73.4 53.6 50% 30.1 0.0
20 19:15 N 3 10.00 Partly Cloudy SCT120 71.6 55.4 57% 30.12 0.0
20 18:55 N 3 10.00 Light Rain BKN120 73.4 53.6 50% 30.12 0.0
20 18:35 Calm 10.00 Fair CLR 75.2 50 41% 78 30.11 0.0
20 18:15 NW 3 10.00 Fair CLR 77 48.2 36% 78 30.09 0.0
Date Time (mdt) Wind (mph) Vis. (mi.) Weather Sky Cond. Air Dwpt Max. Min. Relative Humidity Wind Chill (°F) Heat Index (°F) altimeter (in) sea level (mb) 1 hr 3 hr 6 hr
6 hour
Temperature (ºF) Pressure Precipitation (in)